Stündliche Wetter Bolshie Leznevichi

Heute, 13 Mai, Donnerstag

Zeit Temperatur Niederschläge Wind Luftdruck Luftfeuchtigkeit
00:00 +9°C° 0 mm 2 m/S 733 mmHg 80%
01:00 +10°C° 0 mm 1 m/S 733 mmHg 81%
02:00 +10°C° 0 mm 1 m/S 732 mmHg 82%
03:00 +10°C° 0 mm 1 m/S 731 mmHg 82%
04:00 +10°C° 0 mm 1 m/S 731 mmHg 82%
05:00 +9°C° 0 mm 2 m/S 730 mmHg 82%
06:00 +10°C° 1.1 mm 1 m/S 730 mmHg 86%
07:00 +10°C° 1.1 mm 1 m/S 729 mmHg 91%
08:00 +10°C° 1.1 mm 1 m/S 729 mmHg 95%
09:00 +8°C° 1.7 mm 2 m/S 728 mmHg 95%
10:00 +8°C° 1.7 mm 3 m/S 728 mmHg 96%
11:00 +7°C° 1.7 mm 4 m/S 728 mmHg 96%
12:00 +7°C° 2.2 mm 4 m/S 728 mmHg 95%
13:00 +7°C° 2.2 mm 5 m/S 728 mmHg 95%
14:00 +7°C° 2.2 mm 5 m/S 728 mmHg 94%
15:00 +7°C° 1.3 mm 5 m/S 728 mmHg 94%
16:00 +7°C° 1.3 mm 5 m/S 728 mmHg 94%
17:00 +7°C° 1.3 mm 5 m/S 728 mmHg 95%
18:00 +8°C° 0.4 mm 5 m/S 728 mmHg 94%
19:00 +8°C° 0.4 mm 5 m/S 728 mmHg 94%
20:00 +8°C° 0.4 mm 5 m/S 728 mmHg 94%
21:00 +8°C° 0.2 mm 5 m/S 728 mmHg 95%
22:00 +8°C° 0.2 mm 5 m/S 728 mmHg 95%
23:00 +8°C° 0.2 mm 4 m/S 728 mmHg 95%

Morgen, 14 Mai, Freitag

Zeit Temperatur Niederschläge Wind Luftdruck Luftfeuchtigkeit
00:00 +8°C° 0.4 mm 4 m/S 727 mmHg 96%
01:00 +8°C° 0.4 mm 4 m/S 727 mmHg 97%
02:00 +8°C° 0.4 mm 4 m/S 727 mmHg 97%
03:00 +8°C° 0.9 mm 4 m/S 727 mmHg 97%
04:00 +8°C° 0.9 mm 4 m/S 727 mmHg 98%
05:00 +10°C° 0.9 mm 4 m/S 726 mmHg 98%
06:00 +9°C° 1 mm 5 m/S 727 mmHg 97%
07:00 +10°C° 1 mm 5 m/S 727 mmHg 96%
08:00 +10°C° 1 mm 6 m/S 727 mmHg 94%
09:00 +10°C° 0 mm 5 m/S 727 mmHg 93%
10:00 +10°C° 0 mm 5 m/S 727 mmHg 92%
11:00 +10°C° 0 mm 5 m/S 728 mmHg 91%
12:00 +12°C° 0.2 mm 5 m/S 728 mmHg 87%
13:00 +14°C° 0.2 mm 5 m/S 728 mmHg 83%
14:00 +15°C° 0.2 mm 5 m/S 728 mmHg 78%
15:00 +15°C° 0.5 mm 5 m/S 728 mmHg 78%
16:00 +15°C° 0.5 mm 5 m/S 728 mmHg 78%
17:00 +15°C° 0.5 mm 4 m/S 728 mmHg 78%
18:00 +14°C° 0.2 mm 3 m/S 728 mmHg 82%
19:00 +13°C° 0.2 mm 3 m/S 728 mmHg 86%
20:00 +13°C° 0.2 mm 2 m/S 728 mmHg 89%
21:00 +12°C° 0 mm 2 m/S 728 mmHg 90%
22:00 +12°C° 0 mm 2 m/S 728 mmHg 91%
23:00 +11°C° 0 mm 1 m/S 728 mmHg 92%

übermorgen, 15 Mai, Samstag

Zeit Temperatur Niederschläge Wind Luftdruck Luftfeuchtigkeit
00:00 +11°C° 0 mm 1 m/S 728 mmHg 92%
01:00 +11°C° 0 mm 1 m/S 728 mmHg 93%
02:00 +11°C° 0 mm 1 m/S 728 mmHg 93%
03:00 +11°C° 0 mm 1 m/S 729 mmHg 94%
04:00 +10°C° 0 mm 2 m/S 729 mmHg 94%
05:00 +10°C° 0 mm 2 m/S 729 mmHg 95%
06:00 +10°C° 0 mm 2 m/S 729 mmHg 92%
07:00 +12°C° 0 mm 2 m/S 730 mmHg 88%
08:00 +12°C° 0 mm 3 m/S 730 mmHg 84%
09:00 +13°C° 0 mm 3 m/S 731 mmHg 78%
10:00 +14°C° 0 mm 3 m/S 731 mmHg 71%
11:00 +17°C° 0 mm 3 m/S 731 mmHg 64%
12:00 +17°C° 0 mm 3 m/S 731 mmHg 62%
13:00 +18°C° 0 mm 3 m/S 731 mmHg 60%
14:00 +18°C° 0 mm 3 m/S 731 mmHg 58%
15:00 +17°C° 0.2 mm 3 m/S 731 mmHg 64%
16:00 +17°C° 0.2 mm 3 m/S 731 mmHg 70%
17:00 +16°C° 0.2 mm 3 m/S 731 mmHg 77%
18:00 +14°C° 0.1 mm 3 m/S 732 mmHg 81%
19:00 +14°C° 0.1 mm 2 m/S 732 mmHg 85%
20:00 +13°C° 0.1 mm 2 m/S 732 mmHg 89%
21:00 +12°C° 0 mm 2 m/S 732 mmHg 89%
22:00 +12°C° 0 mm 2 m/S 732 mmHg 89%
23:00 +12°C° 0 mm 2 m/S 732 mmHg 90%

16 Mai, Sonntag

Zeit Temperatur Niederschläge Wind Luftdruck Luftfeuchtigkeit
00:00 +10°C° 0 mm 2 m/S 732 mmHg 91%
01:00 +9°C° 0 mm 2 m/S 733 mmHg 92%
02:00 +8°C° 0 mm 2 m/S 733 mmHg 93%
03:00 +8°C° 0 mm 2 m/S 733 mmHg 94%
04:00 +8°C° 0 mm 2 m/S 733 mmHg 94%
05:00 +8°C° 0 mm 2 m/S 733 mmHg 94%
06:00 +9°C° 0 mm 2 m/S 733 mmHg 89%
07:00 +12°C° 0 mm 2 m/S 733 mmHg 85%
08:00 +13°C° 0 mm 2 m/S 733 mmHg 80%
09:00 +14°C° 0 mm 3 m/S 733 mmHg 75%
10:00 +15°C° 0 mm 4 m/S 733 mmHg 71%
11:00 +18°C° 0 mm 4 m/S 733 mmHg 67%
12:00 +17°C° 0.2 mm 5 m/S 733 mmHg 65%
13:00 +19°C° 0.2 mm 5 m/S 733 mmHg 64%
14:00 +19°C° 0.2 mm 5 m/S 733 mmHg 62%
15:00 +19°C° 0.1 mm 5 m/S 732 mmHg 64%
16:00 +19°C° 0.1 mm 5 m/S 732 mmHg 67%
17:00 +19°C° 0.1 mm 5 m/S 732 mmHg 69%
18:00 +18°C° 0.2 mm 4 m/S 731 mmHg 75%
19:00 +15°C° 0.2 mm 4 m/S 731 mmHg 80%
20:00 +14°C° 0.2 mm 3 m/S 731 mmHg 86%
21:00 +13°C° 0.4 mm 4 m/S 731 mmHg 88%
22:00 +13°C° 0.4 mm 4 m/S 730 mmHg 89%
23:00 +13°C° 0.4 mm 4 m/S 730 mmHg 91%

17 Mai, Montag

Zeit Temperatur Niederschläge Wind Luftdruck Luftfeuchtigkeit
00:00 +12°C° 0.2 mm 3 m/S 730 mmHg 93%
01:00 +12°C° 0.2 mm 3 m/S 730 mmHg 94%
02:00 +13°C° 0.2 mm 2 m/S 730 mmHg 96%
03:00 +13°C° 1.1 mm 2 m/S 730 mmHg 96%
04:00 +13°C° 1.1 mm 2 m/S 730 mmHg 97%
05:00 +12°C° 1.1 mm 3 m/S 730 mmHg 97%
06:00 +12°C° 0.5 mm 3 m/S 730 mmHg 96%
07:00 +12°C° 0.5 mm 3 m/S 730 mmHg 95%
08:00 +12°C° 0.5 mm 3 m/S 731 mmHg 93%
09:00 +13°C° 0.2 mm 3 m/S 731 mmHg 91%
10:00 +13°C° 0.2 mm 3 m/S 731 mmHg 90%
11:00 +13°C° 0.2 mm 3 m/S 731 mmHg 88%
12:00 +15°C° 0.2 mm 2 m/S 731 mmHg 81%
13:00 +16°C° 0.2 mm 2 m/S 731 mmHg 75%
14:00 +17°C° 0.2 mm 2 m/S 731 mmHg 68%
15:00 +17°C° 0.1 mm 2 m/S 731 mmHg 68%
16:00 +17°C° 0.1 mm 2 m/S 731 mmHg 67%
17:00 +18°C° 0.1 mm 1 m/S 731 mmHg 67%
18:00 +16°C° 0 mm 1 m/S 731 mmHg 72%
19:00 +15°C° 0 mm 1 m/S 731 mmHg 76%
20:00 +13°C° 0 mm 1 m/S 731 mmHg 81%
21:00 +13°C° 0 mm 1 m/S 731 mmHg 83%
22:00 +12°C° 0 mm 1 m/S 731 mmHg 84%
23:00 +11°C° 0 mm 1 m/S 731 mmHg 86%

18 Mai, Dienstag

Zeit Temperatur Niederschläge Wind Luftdruck Luftfeuchtigkeit
00:00 +11°C° 0 mm 1 m/S 731 mmHg 87%
01:00 +10°C° 0 mm 1 m/S 731 mmHg 89%
02:00 +9°C° 0 mm 2 m/S 731 mmHg 90%
03:00 +9°C° 0 mm 2 m/S 731 mmHg 91%
04:00 +9°C° 0 mm 2 m/S 731 mmHg 91%
05:00 +9°C° 0 mm 2 m/S 731 mmHg 91%
06:00 +12°C° 0 mm 2 m/S 731 mmHg 86%
07:00 +13°C° 0 mm 2 m/S 731 mmHg 81%
08:00 +14°C° 0 mm 3 m/S 731 mmHg 76%
09:00 +16°C° 0.1 mm 3 m/S 731 mmHg 73%
10:00 +17°C° 0.1 mm 4 m/S 731 mmHg 69%
11:00 +18°C° 0.1 mm 4 m/S 731 mmHg 66%
12:00 +17°C° 0.3 mm 5 m/S 731 mmHg 66%
13:00 +19°C° 0.3 mm 5 m/S 730 mmHg 66%
14:00 +19°C° 0.3 mm 5 m/S 730 mmHg 66%
15:00 +17°C° 0.4 mm 5 m/S 730 mmHg 72%
16:00 +17°C° 0.4 mm 4 m/S 730 mmHg 78%
17:00 +14°C° 0.4 mm 4 m/S 730 mmHg 85%
18:00 +14°C° 0.3 mm 3 m/S 730 mmHg 88%
19:00 +14°C° 0.3 mm 2 m/S 730 mmHg 92%
20:00 +13°C° 0.3 mm 2 m/S 730 mmHg 95%
21:00 +13°C° 2 mm 2 m/S 730 mmHg 96%
22:00 +13°C° 2 mm 1 m/S 729 mmHg 98%
23:00 +13°C° 2 mm 1 m/S 729 mmHg 99%
Mehr zeigen

Wir brauchen deine Erlaubnis

Meteoprog und unser Service Anbieter werden persönliche Daten aufbewahren, so wie Cookies, Geräte Bezeichnung oder ähnliche Technologien von deinem Gerät und Prozess, so wie Persönliche Daten Inhalte und Werbungen, genauso wie social Media und den Verkehr zu analysieren.

  • Aufbewahrung und/oder Zugang zu deiner Geräte Informationen.

    Cookies, Geräte Bezeichnung oder andere Informationen, können aufbewahrt oder Zugang zu deinem Gerät erhalten, für den Grund, der oben angegeben wird.

  • Personalisierte Werbung und Inhalte, Messungen, Einblick in das Publikum und Produkt Entwicklung.

    Werbungen und Inhalte können personalisiert werden, basierend auf ein Profil. Mehr Daten können besser personalisierte Werbungen und Inhalte hinzufügen. Werbung und Inhalte können gezeigt und gemessen werden. Einblicke über das Publikum, welche die Werbung gesehen haben und den Inhalt, können abgeleitet werden. So wie Daten können genutzt werden, um es zu verbessern oder die Benutzer Erfahrung zu verbessern das System und die Software.

Wenn du “Ich stimme zu” klickst, erlaubst du uns, die Cookies zu benutzen die Geräte Bezeichnung, den Web oder ähnliche Technologien zu benutzen. Deine Settings, können in deinem Gerät bei deinem Browser geändert werden.

Für den bestimmten Zweck, berechtigten Interessen beruhen darauf, mehr als auf den Inhalt. Du kannst mehr darüber in unseren Privaten und Cookie Politik lesen.